NOAA 16 DEB

Satellite information

Favourite Embed

Satellite Type and Status

DEBRISIN ORBIT

Key statistics

Satellite NOAA 16 DEB at a glance.

Uptime

9215

Days in orbit

Revolutions

≈ 14.3

Per day

Orbit

SSO

Sun Synchronous Orbit

Inclination

98.6

Latest

Satellite identification and parameters

Extended collection of information and parameters for NOAA 16 DEB.

Object identification

Identified? True

Debris? True

Object name: NOAA 16 DEB

International designator: 2000-055HL

Object number (NORAD): 41343

Object ID (CCSDS): 41343

Country: UNITED STATES OF AMERICA (US)

Current information (Y/N): Y

RCS size: SMALL

Orbital parameters

Period: 100.449 minutes

Inclination: 98.6055 deg

SMA: 7157.988 km

Apoapsis: 795.154 km

Periapsis: 764.553 km

RAAN: 39.1362 deg

Eccentricy: 0.0021375

Argument of periapsis: 79.1522 deg

Mean anomaly: 281.2067 deg

Mean motion: 14.33561344 rev/day

Mean motion (dot): 0.00007756 rev/day2

B* drag term: 0.0028082822 1/REarth

Two-line elements (TLE)

Creation date: Dec. 11, 2025, 7:14 p.m.

Reference frame: TEME

Reference center: EARTH

Epoch: Dec. 11, 2025, 2:52 p.m. UTC

TLE line 0: 0 NOAA 16 DEB

TLE line 1: 1 41343U 00055HL 25345.61952540 .00007756 00000-0 28083-2 0 9994

TLE line 2: 2 41343 98.6055 39.1362 0021375 79.1522 281.2067 14.33561344511533

Live tracking on map

Real-time ground track for satellite NOAA 16 DEB.

In-orbit conjunctions

A list of the most updated potential collisions computed for object NOAA 16 DEB.

Target Orbit TCA Probability of collision Miss distance Type
SL-8 R/B LEO 2025-08-24 18:17:05 0.0003153572 307.0 (m) ROCKET BODY
CZ-6A DEB LEO 2025-07-04 05:31:05 0.0001162821 185.0 (m) DEBRIS
CZ-6A DEB LEO 2025-03-04 00:18:18 0.0001755684 651.0 (m) DEBRIS
COSMOS 2251 DEB LEO 2024-12-24 10:34:56 0.0002718438 61.0 (m) DEBRIS

Associated space launch

The NOAA K, L and M POES satellites begin the fifth generation of improved environmental monitoring in support of NOAA missions. The instrument payload has significant improvements and additions/deletions. The instrument changes have effected the spacecraft subsystems and data formats.

NOAA 16 DEB was lifted into orbit during the mission ‘Titan II SLV | NOAA 16’, on board a Titan II SLV space rocket.

The launch took place on Sept. 21, 2000, 10:22 a.m. from Space Launch Complex 4W.

For more information about the launch, click the button.

Launch to space Titan II SLV | NOAA 16
Titan II SLV | NOAA 16

Agency: N/A

Status: Launch Successful

Launch date: Sept. 21, 2000, 10:22 a.m. UTC

Rocket: Titan II SLV

Launch pad: Space Launch Complex 4W

Location: Vandenberg SFB, CA, USA

...

Latest news about this satellite

There are no fresh news available about this satellite. Check back as we update our databases every day.


Newsletter sign-up

Weekly statistics, charts and insights to help you stay on top of the space industry.